Radiation Dose at Monitoring Post of Fukushima Daini Nuclear Power Station
Date,Time,MP-1(microSv/h),MP-2(microSv/h),MP-3(microSv/h),MP-4(microSv/h),MP-5(microSv/h),MP-6(microSv/h),MP-7(microSv/h),Wind Direction,Wind Velocity(m/s),Rain
2024/07/07,00:00,0.150,0.132,0.217,0.202,0.210,0.119,0.077,southwest,3.7,No
2024/07/07,00:10,0.151,0.133,0.215,0.202,0.209,0.119,0.077,southwest,5.1,No
2024/07/07,00:20,0.149,0.132,0.215,0.202,0.208,0.119,0.077,west-southwest,6.1,No
2024/07/07,00:30,0.148,0.132,0.218,0.199,0.207,0.120,0.076,west-southwest,6.3,No
2024/07/07,00:40,0.149,0.132,0.215,0.201,0.205,0.118,0.077,west-southwest,6.8,No
2024/07/07,00:50,0.149,0.133,0.213,0.202,0.209,0.118,0.076,west-southwest,7.5,No
2024/07/07,01:00,0.149,0.132,0.216,0.201,0.208,0.118,0.076,west-southwest,7.6,No
2024/07/07,01:10,0.146,0.131,0.218,0.200,0.208,0.118,0.075,west-southwest,6.3,No
2024/07/07,01:20,0.148,0.130,0.216,0.200,0.206,0.119,0.077,west-southwest,6.0,No
2024/07/07,01:30,0.150,0.133,0.215,0.203,0.206,0.118,0.077,west-southwest,3.9,No
2024/07/07,01:40,0.149,0.133,0.214,0.202,0.210,0.118,0.076,west-southwest,2.8,No
2024/07/07,01:50,0.148,0.132,0.215,0.200,0.209,0.118,0.076,south-southwest,2.6,No
2024/07/07,02:00,0.149,0.132,0.218,0.199,0.208,0.119,0.077,south-southwest,3.3,No
2024/07/07,02:10,0.149,0.133,0.216,0.203,0.206,0.118,0.077,south-southwest,3.8,No
2024/07/07,02:20,0.148,0.132,0.215,0.202,0.207,0.119,0.077,southwest,4.6,No
2024/07/07,02:30,0.147,0.132,0.218,0.200,0.209,0.118,0.077,west-southwest,4.7,No
2024/07/07,02:40,0.150,0.132,0.217,0.200,0.208,0.119,0.076,west,2.7,No
2024/07/07,02:50,0.149,0.133,0.214,0.203,0.206,0.118,0.076,west,3.2,No
2024/07/07,03:00,0.149,0.131,0.214,0.201,0.205,0.118,0.075,west-southwest,3.0,No
2024/07/07,03:10,0.148,0.131,0.217,0.199,0.209,0.119,0.077,west-southwest,1.9,No
2024/07/07,03:20,0.148,0.131,0.218,0.198,0.209,0.119,0.076,west-southwest,4.4,No
2024/07/07,03:30,0.150,0.134,0.215,0.202,0.207,0.118,0.076,west-southwest,5.4,No
2024/07/07,03:40,0.148,0.133,0.214,0.200,0.206,0.118,0.076,southwest,5.7,No
2024/07/07,03:50,0.148,0.131,0.217,0.199,0.208,0.118,0.077,southwest,6.1,No
2024/07/07,04:00,0.147,0.133,0.216,0.198,0.208,0.119,0.076,west-southwest,8.5,No
2024/07/07,04:10,0.149,0.133,0.215,0.201,0.206,0.118,0.076,west-southwest,6.0,No
2024/07/07,04:20,0.148,0.131,0.214,0.201,0.206,0.118,0.076,west-southwest,5.5,No
2024/07/07,04:30,0.148,0.131,0.216,0.200,0.207,0.118,0.076,west-southwest,6.7,No
2024/07/07,04:40,0.147,0.131,0.217,0.199,0.210,0.118,0.076,southwest,6.1,No
2024/07/07,04:50,0.149,0.132,0.215,0.201,0.209,0.119,0.076,southwest,3.3,No
2024/07/07,05:00,0.149,0.132,0.214,0.201,0.207,0.118,0.075,southwest,3.8,No
2024/07/07,05:10,0.147,0.131,0.215,0.200,0.204,0.118,0.077,south-southwest,2.8,No
2024/07/07,05:20,0.149,0.132,0.218,0.199,0.208,0.118,0.076,south-southwest,2.8,No
2024/07/07,05:30,0.149,0.133,0.217,0.199,0.209,0.119,0.075,south,1.9,No
2024/07/07,05:40,0.149,0.133,0.213,0.203,0.207,0.119,0.076,south-southwest,3.4,No
2024/07/07,05:50,0.147,0.131,0.214,0.202,0.207,0.117,0.076,south,3.5,No
2024/07/07,06:00,0.149,0.132,0.217,0.200,0.206,0.118,0.076,south-southwest,4.1,No
2024/07/07,06:10,0.150,0.132,0.217,0.200,0.206,0.119,0.075,south-southwest,4.7,No
2024/07/07,06:20,0.148,0.132,0.215,0.200,0.208,0.119,0.076,south-southwest,4.3,No
2024/07/07,06:30,0.147,0.132,0.216,0.203,0.209,0.118,0.076,south-southwest,3.6,No
2024/07/07,06:40,0.148,0.132,0.214,0.201,0.207,0.118,0.077,south-southwest,3.8,No
2024/07/07,06:50,0.147,0.132,0.213,0.202,0.207,0.117,0.076,southwest,4.1,No
2024/07/07,07:00,0.147,0.132,0.215,0.201,0.207,0.119,0.076,south-southwest,2.7,No
2024/07/07,07:10,0.148,0.132,0.215,0.200,0.207,0.119,0.076,south-southwest,3.2,No
2024/07/07,07:20,0.149,0.132,0.215,0.200,0.207,0.118,0.076,south,3.1,No
2024/07/07,07:30,0.148,0.133,0.215,0.202,0.206,0.118,0.076,south,2.6,No
2024/07/07,07:40,0.148,0.132,0.216,0.200,0.207,0.118,0.076,south,3.3,No
2024/07/07,07:50,0.148,0.132,0.217,0.200,0.207,0.118,0.076,south,4.3,No
2024/07/07,08:00,0.149,0.132,0.216,0.201,0.208,0.118,0.076,south,6.5,No
2024/07/07,08:10,0.148,0.132,0.218,0.201,0.208,0.119,0.076,south,5.5,No
2024/07/07,08:20,0.148,0.133,0.217,0.201,0.208,0.119,0.077,south-southwest,4.8,No
2024/07/07,08:30,0.149,0.134,0.217,0.202,0.208,0.118,0.077,south,4.4,No
2024/07/07,08:40,0.149,0.134,0.217,0.202,0.209,0.119,0.076,south-southwest,5.0,No
2024/07/07,08:50,0.150,0.133,0.219,0.203,0.210,0.119,0.077,south-southwest,5.0,No
2024/07/07,09:00,0.150,0.134,0.218,0.203,0.209,0.119,0.077,south,6.1,No
2024/07/07,09:10,0.150,0.134,0.218,0.202,0.210,0.119,0.076,south,6.3,No
2024/07/07,09:20,0.149,0.134,0.218,0.203,0.209,0.119,0.076,south,6.7,No
2024/07/07,09:30,0.149,0.133,0.217,0.203,0.209,0.119,0.076,south,7.6,No
2024/07/07,09:40,0.149,0.133,0.217,0.202,0.208,0.119,0.076,south,7.4,No
2024/07/07,09:50,0.149,0.132,0.215,0.201,0.206,0.119,0.076,south,9.5,No
2024/07/07,10:00,0.148,0.132,0.216,0.202,0.207,0.118,0.076,south,8.7,No
2024/07/07,10:10,0.149,0.132,0.216,0.202,0.207,0.118,0.075,south-southeast,8.1,No
2024/07/07,10:20,0.149,0.133,0.217,0.203,0.207,0.118,0.075,south-southeast,8.7,No
2024/07/07,10:30,0.150,0.133,0.216,0.202,0.208,0.119,0.076,south-southeast,7.8,No
2024/07/07,10:40,0.149,0.132,0.216,0.202,0.206,0.118,0.075,south-southeast,7.6,No
2024/07/07,10:50,0.148,0.132,0.215,0.200,0.206,0.118,0.076,south-southeast,9.0,No
2024/07/07,11:00,0.148,0.131,0.214,0.200,0.205,0.118,0.075,south,8.9,No
2024/07/07,11:10,0.147,0.132,0.213,0.200,0.206,0.118,0.076,south-southeast,8.6,No
2024/07/07,11:20,0.147,0.132,0.215,0.200,0.206,0.118,0.075,south,7.9,No
2024/07/07,11:30,0.149,0.132,0.214,0.201,0.206,0.119,0.075,south,6.0,No
2024/07/07,11:40,0.149,0.132,0.217,0.200,0.207,0.118,0.075,south,7.1,No
2024/07/07,11:50,0.149,0.133,0.217,0.202,0.208,0.119,0.076,south,7.7,No
2024/07/07,12:00,0.150,0.133,0.218,0.203,0.207,0.118,0.076,south,8.1,No
2024/07/07,12:10,0.150,0.133,0.219,0.202,0.206,0.119,0.076,south,7.0,No
2024/07/07,12:20,0.150,0.134,0.218,0.203,0.208,0.117,0.076,south,7.5,No
2024/07/07,12:30,0.150,0.134,0.218,0.203,0.208,0.118,0.076,south,7.8,No
2024/07/07,12:40,0.150,0.133,0.218,0.203,0.209,0.118,0.075,south,8.9,No
2024/07/07,12:50,0.149,0.133,0.218,0.202,0.209,0.117,0.076,south-southeast,9.6,No
2024/07/07,13:00,0.150,0.132,0.216,0.202,0.209,0.119,0.076,south-southeast,9.2,No
2024/07/07,13:10,0.149,0.132,0.217,0.202,0.208,0.118,0.076,south,8.2,No
2024/07/07,13:20,0.150,0.132,0.217,0.202,0.208,0.118,0.076,south-southeast,6.0,No
2024/07/07,13:30,0.150,0.133,0.216,0.202,0.209,0.118,0.076,south-southeast,6.1,No
2024/07/07,13:40,0.149,0.133,0.217,0.204,0.208,0.119,0.076,south,7.9,No
2024/07/07,13:50,0.150,0.134,0.218,0.202,0.209,0.117,0.076,south-southeast,8.1,No
2024/07/07,14:00,0.150,0.133,0.217,0.204,0.209,0.118,0.075,south,8.1,No
2024/07/07,14:10,0.149,0.132,0.217,0.202,0.208,0.118,0.076,south,7.1,No
2024/07/07,14:20,0.150,0.133,0.216,0.202,0.207,0.118,0.075,south-southeast,7.0,No
2024/07/07,14:30,0.149,0.133,0.217,0.202,0.208,0.119,0.075,south-southeast,6.5,No
2024/07/07,14:40,0.149,0.132,0.215,0.202,0.207,0.119,0.076,south-southeast,5.9,No
2024/07/07,14:50,0.150,0.133,0.216,0.201,0.207,0.119,0.076,south-southeast,5.8,No
2024/07/07,15:00,0.149,0.132,0.215,0.202,0.207,0.119,0.075,south,5.9,No
2024/07/07,15:10,0.148,0.132,0.216,0.202,0.207,0.118,0.076,south-southeast,4.4,No
2024/07/07,15:20,0.148,0.132,0.217,0.202,0.208,0.118,0.076,south,5.2,No
2024/07/07,15:30,0.149,0.133,0.216,0.202,0.207,0.118,0.077,south-southeast,4.6,No
2024/07/07,15:40,0.149,0.132,0.216,0.201,0.207,0.118,0.076,south-southeast,6.4,No
2024/07/07,15:50,0.148,0.132,0.215,0.200,0.207,0.118,0.076,south,6.1,No
2024/07/07,16:00,0.149,0.132,0.215,0.199,0.206,0.118,0.075,south-southeast,6.1,No
2024/07/07,16:10,0.148,0.132,0.215,0.200,0.206,0.119,0.076,south,6.3,No
2024/07/07,16:20,0.148,0.132,0.215,0.201,0.207,0.118,0.075,south,5.3,No
2024/07/07,16:30,0.149,0.131,0.216,0.200,0.208,0.118,0.075,south-southwest,3.9,No
2024/07/07,16:40,0.147,0.131,0.216,0.201,0.207,0.118,0.075,southwest,2.7,No
2024/07/07,16:50,0.148,0.132,0.215,0.199,0.208,0.118,0.076,west-southwest,3.5,No
2024/07/07,17:00,0.148,0.131,0.216,0.200,0.208,0.119,0.076,west-southwest,3.9,No
2024/07/07,17:10,0.148,0.131,0.215,0.200,0.208,0.117,0.075,west,4.1,No
2024/07/07,17:20,0.148,0.132,0.215,0.200,0.208,0.119,0.075,west,5.4,No
2024/07/07,17:30,0.148,0.131,0.216,0.201,0.208,0.118,0.075,west,4.7,No
2024/07/07,17:40,0.148,0.131,0.217,0.200,0.208,0.118,0.076,west-northwest,2.5,No
2024/07/07,17:50,0.148,0.131,0.217,0.201,0.210,0.117,0.076,west,3.4,No
2024/07/07,18:00,0.148,0.132,0.217,0.201,0.208,0.118,0.075,west-northwest,5.8,No
2024/07/07,18:10,0.149,0.133,0.216,0.200,0.207,0.118,0.075,northwest,4.5,No
2024/07/07,18:20,0.149,0.132,0.215,0.201,0.207,0.118,0.075,west-northwest,2.8,No
2024/07/07,18:30,0.149,0.132,0.217,0.201,0.207,0.118,0.075,northwest,2.5,No
2024/07/07,18:40,0.148,0.131,0.216,0.201,0.207,0.118,0.075,northwest,2.9,No
2024/07/07,18:50,0.148,0.132,0.216,0.201,0.206,0.118,0.075,northwest,2.8,No
2024/07/07,19:00,0.149,0.132,0.215,0.200,0.205,0.118,0.076,northwest,1.4,No
2024/07/07,19:10,0.148,0.132,0.216,0.201,0.205,0.118,0.076,west-northwest,1.9,No
2024/07/07,19:20,0.147,0.131,0.216,0.200,0.205,0.119,0.076,west-northwest,2.1,No
2024/07/07,19:30,0.147,0.131,0.219,0.203,0.206,0.119,0.075,west-southwest,2.4,No
2024/07/07,19:40,0.147,0.133,0.219,0.203,0.206,0.118,0.076,west,1.1,No
2024/07/07,19:50,0.150,0.133,0.217,0.201,0.207,0.118,0.076,north-northwest,1.3,No
2024/07/07,20:00,0.149,0.131,0.215,0.201,0.206,0.119,0.075,-,CALM,No
2024/07/07,20:10,0.148,0.131,0.215,0.202,0.206,0.118,0.075,west-northwest,1.7,No
2024/07/07,20:20,0.148,0.131,0.216,0.200,0.206,0.118,0.075,southwest,2.3,No
2024/07/07,20:30,0.148,0.134,0.216,0.199,0.206,0.117,0.076,west,1.4,No
2024/07/07,20:40,0.148,0.133,0.219,0.202,0.205,0.120,0.075,-,CALM,No
2024/07/07,20:50,0.149,0.132,0.218,0.203,0.206,0.119,0.075,west-southwest,3.2,No
2024/07/07,21:00,0.147,0.131,0.216,0.201,0.206,0.119,0.076,south-southeast,2.5,No
2024/07/07,21:10,0.148,0.132,0.216,0.200,0.205,0.117,0.076,south,1.6,No
2024/07/07,21:20,0.149,0.133,0.215,0.200,0.207,0.119,0.075,south,1.5,No
2024/07/07,21:30,0.149,0.133,0.214,0.200,0.209,0.118,0.077,south-southwest,1.2,No
2024/07/07,21:40,0.150,0.131,0.218,0.204,0.208,0.118,0.076,south-southeast,1.6,No
2024/07/07,21:50,0.148,0.131,0.217,0.202,0.206,0.118,0.075,south,2.8,No
2024/07/07,22:00,0.147,0.132,0.216,0.202,0.205,0.118,0.076,south,3.1,No
2024/07/07,22:10,0.150,0.133,0.215,0.200,0.210,0.118,0.076,south-southwest,1.2,No
2024/07/07,22:20,0.149,0.132,0.216,0.203,0.210,0.118,0.075,southwest,0.7,No
2024/07/07,22:30,0.148,0.132,0.220,0.204,0.207,0.118,0.075,west,0.6,No
2024/07/07,22:40,0.148,0.133,0.217,0.201,0.206,0.119,0.076,west,2.9,No
2024/07/07,22:50,0.149,0.132,0.216,0.200,0.208,0.118,0.075,west-northwest,2.3,No
2024/07/07,23:00,0.149,0.132,0.216,0.203,0.209,0.118,0.076,northwest,1.6,No
2024/07/07,23:10,0.148,0.132,0.219,0.202,0.209,0.118,0.076,west-northwest,0.8,No
2024/07/07,23:20,0.150,0.132,0.216,0.201,0.206,0.118,0.076,west-northwest,0.9,No
2024/07/07,23:30,0.149,0.131,0.215,0.200,0.206,0.118,0.076,west-northwest,4.7,No
2024/07/07,23:40,0.147,0.132,0.218,0.203,0.209,0.119,0.076,west-northwest,4.3,No
2024/07/07,23:50,0.149,0.133,0.218,0.202,0.208,0.119,0.076,west-northwest,3.5,No
